Hourly Weather Rudneve

Today, 19 April, Monday

Time Temperature Precipitation Wind Pressure Humidity
00:00 +10°C° 0 mm 1 mps 754 mmHg 76%
01:00 +8°C° 0 mm 2 mps 754 mmHg 79%
02:00 +8°C° 0 mm 2 mps 754 mmHg 82%
03:00 +8°C° 0 mm 2 mps 753 mmHg 83%
04:00 +8°C° 0 mm 2 mps 753 mmHg 83%
05:00 +8°C° 0 mm 2 mps 753 mmHg 84%
06:00 +9°C° 0 mm 2 mps 753 mmHg 78%
07:00 +10°C° 0 mm 3 mps 753 mmHg 71%
08:00 +12°C° 0 mm 2 mps 753 mmHg 66%
09:00 +14°C° 0.2 mm 2 mps 753 mmHg 60%
10:00 +15°C° 0.2 mm 2 mps 752 mmHg 54%
11:00 +16°C° 0.2 mm 2 mps 752 mmHg 48%
12:00 +16°C° 0.2 mm 2 mps 752 mmHg 48%
13:00 +16°C° 0.2 mm 2 mps 752 mmHg 47%
14:00 +16°C° 0.2 mm 2 mps 752 mmHg 47%
15:00 +16°C° 0.1 mm 2 mps 752 mmHg 50%
16:00 +15°C° 0.1 mm 2 mps 751 mmHg 53%
17:00 +15°C° 0.1 mm 2 mps 751 mmHg 56%
18:00 +14°C° 0.1 mm 1 mps 751 mmHg 60%
19:00 +13°C° 0.1 mm 1 mps 752 mmHg 65%
20:00 +12°C° 0.1 mm 1 mps 752 mmHg 69%
21:00 +12°C° 0 mm 1 mps 752 mmHg 70%
22:00 +11°C° 0 mm 1 mps 751 mmHg 71%
23:00 +11°C° 0 mm 1 mps 751 mmHg 72%

Tomorrow, 20 April, Tuesday

Time Temperature Precipitation Wind Pressure Humidity
00:00 +11°C° 0 mm 1 mps 750 mmHg 73%
01:00 +10°C° 0 mm 2 mps 750 mmHg 74%
02:00 +10°C° 0 mm 2 mps 750 mmHg 74%
03:00 +10°C° 0 mm 2 mps 749 mmHg 76%
04:00 +10°C° 0 mm 2 mps 749 mmHg 78%
05:00 +10°C° 0 mm 2 mps 748 mmHg 80%
06:00 +11°C° 0.1 mm 3 mps 748 mmHg 79%
07:00 +12°C° 0.1 mm 4 mps 748 mmHg 78%
08:00 +12°C° 0.1 mm 5 mps 747 mmHg 76%
09:00 +12°C° 0.7 mm 5 mps 746 mmHg 79%
10:00 +12°C° 0.7 mm 5 mps 746 mmHg 82%
11:00 +12°C° 0.7 mm 5 mps 745 mmHg 85%
12:00 +10°C° 1.5 mm 5 mps 744 mmHg 85%
13:00 +11°C° 1.5 mm 4 mps 744 mmHg 86%
14:00 +10°C° 1.5 mm 4 mps 743 mmHg 86%
15:00 +10°C° 0.6 mm 4 mps 742 mmHg 88%
16:00 +10°C° 0.6 mm 3 mps 742 mmHg 90%
17:00 +9°C° 0.6 mm 3 mps 742 mmHg 91%
18:00 +9°C° 0.8 mm 3 mps 742 mmHg 90%
19:00 +9°C° 0.8 mm 3 mps 743 mmHg 89%
20:00 +9°C° 0.8 mm 3 mps 744 mmHg 87%
21:00 +9°C° 0 mm 3 mps 744 mmHg 89%
22:00 +9°C° 0 mm 3 mps 745 mmHg 91%
23:00 +8°C° 0 mm 4 mps 745 mmHg 92%

Day after tomorrow, 21 April, Wednesday

Time Temperature Precipitation Wind Pressure Humidity
00:00 +8°C° 0.2 mm 4 mps 746 mmHg 92%
01:00 +8°C° 0.2 mm 5 mps 746 mmHg 91%
02:00 +8°C° 0.2 mm 6 mps 747 mmHg 91%
03:00 +8°C° 0.1 mm 5 mps 747 mmHg 90%
04:00 +7°C° 0.1 mm 5 mps 748 mmHg 90%
05:00 +7°C° 0.1 mm 5 mps 749 mmHg 89%
06:00 +8°C° 0.1 mm 5 mps 749 mmHg 85%
07:00 +8°C° 0.1 mm 5 mps 750 mmHg 81%
08:00 +9°C° 0.1 mm 5 mps 751 mmHg 77%
09:00 +10°C° 0.1 mm 6 mps 751 mmHg 69%
10:00 +11°C° 0.1 mm 7 mps 751 mmHg 61%
11:00 +14°C° 0.1 mm 7 mps 751 mmHg 53%
12:00 +14°C° 0 mm 7 mps 752 mmHg 53%
13:00 +14°C° 0 mm 7 mps 752 mmHg 53%
14:00 +14°C° 0 mm 6 mps 752 mmHg 53%
15:00 +13°C° 0 mm 5 mps 752 mmHg 53%
16:00 +13°C° 0 mm 4 mps 753 mmHg 53%
17:00 +13°C° 0 mm 4 mps 753 mmHg 53%
18:00 +12°C° 0 mm 3 mps 754 mmHg 58%
19:00 +12°C° 0 mm 2 mps 754 mmHg 62%
20:00 +10°C° 0 mm 1 mps 754 mmHg 67%
21:00 +10°C° 0 mm 1 mps 755 mmHg 68%
22:00 +10°C° 0 mm 1 mps 755 mmHg 69%
23:00 +8°C° 0 mm 2 mps 755 mmHg 70%

22 April, Thursday

Time Temperature Precipitation Wind Pressure Humidity
00:00 +8°C° 0 mm 2 mps 755 mmHg 73%
01:00 +8°C° 0 mm 2 mps 755 mmHg 75%
02:00 +8°C° 0 mm 2 mps 755 mmHg 78%
03:00 +8°C° 0 mm 2 mps 755 mmHg 80%
04:00 +8°C° 0 mm 2 mps 756 mmHg 81%
05:00 +8°C° 0 mm 2 mps 756 mmHg 83%
06:00 +10°C° 0.1 mm 3 mps 756 mmHg 79%
07:00 +11°C° 0.1 mm 3 mps 756 mmHg 75%
08:00 +12°C° 0.1 mm 4 mps 757 mmHg 71%
09:00 +14°C° 0.5 mm 4 mps 757 mmHg 65%
10:00 +15°C° 0.5 mm 4 mps 756 mmHg 59%
11:00 +17°C° 0.5 mm 4 mps 756 mmHg 53%
12:00 +17°C° 0.3 mm 4 mps 756 mmHg 49%
13:00 +18°C° 0.3 mm 4 mps 756 mmHg 45%
14:00 +18°C° 0.3 mm 4 mps 756 mmHg 41%
15:00 +17°C° 0 mm 3 mps 756 mmHg 47%
16:00 +17°C° 0 mm 3 mps 756 mmHg 53%
17:00 +16°C° 0 mm 3 mps 756 mmHg 58%
18:00 +14°C° 0.1 mm 3 mps 756 mmHg 62%
19:00 +14°C° 0.1 mm 2 mps 757 mmHg 66%
20:00 +13°C° 0.1 mm 2 mps 757 mmHg 70%
21:00 +12°C° 0 mm 2 mps 757 mmHg 72%
22:00 +12°C° 0 mm 2 mps 757 mmHg 74%
23:00 +10°C° 0 mm 2 mps 757 mmHg 76%

23 April, Friday

Time Temperature Precipitation Wind Pressure Humidity
00:00 +10°C° 0 mm 2 mps 757 mmHg 77%
01:00 +10°C° 0 mm 2 mps 757 mmHg 79%
02:00 +10°C° 0 mm 2 mps 757 mmHg 80%
03:00 +10°C° 0 mm 2 mps 757 mmHg 81%
04:00 +10°C° 0 mm 2 mps 757 mmHg 82%
05:00 +10°C° 0 mm 2 mps 757 mmHg 83%
06:00 +12°C° 0 mm 2 mps 757 mmHg 77%
07:00 +13°C° 0 mm 3 mps 757 mmHg 71%
08:00 +14°C° 0 mm 3 mps 757 mmHg 65%
09:00 +15°C° 0.4 mm 4 mps 757 mmHg 59%
10:00 +17°C° 0.4 mm 4 mps 757 mmHg 52%
11:00 +17°C° 0.4 mm 5 mps 757 mmHg 45%
12:00 +18°C° 0 mm 4 mps 756 mmHg 45%
13:00 +18°C° 0 mm 4 mps 756 mmHg 44%
14:00 +18°C° 0 mm 4 mps 755 mmHg 44%
15:00 +18°C° 0 mm 3 mps 755 mmHg 48%
16:00 +17°C° 0 mm 3 mps 755 mmHg 53%
17:00 +16°C° 0 mm 2 mps 755 mmHg 57%
18:00 +14°C° 0 mm 3 mps 755 mmHg 59%
19:00 +14°C° 0 mm 3 mps 755 mmHg 60%
20:00 +13°C° 0 mm 3 mps 755 mmHg 62%
21:00 +12°C° 0 mm 3 mps 755 mmHg 64%
22:00 +12°C° 0 mm 4 mps 755 mmHg 67%
23:00 +11°C° 0 mm 4 mps 755 mmHg 70%

24 April, Saturday

Time Temperature Precipitation Wind Pressure Humidity
00:00 +10°C° 0 mm 4 mps 754 mmHg 73%
01:00 +10°C° 0 mm 3 mps 754 mmHg 77%
02:00 +9°C° 0 mm 3 mps 754 mmHg 80%
03:00 +9°C° 0 mm 3 mps 754 mmHg 80%
04:00 +8°C° 0 mm 3 mps 754 mmHg 80%
05:00 +8°C° 0 mm 3 mps 754 mmHg 80%
06:00 +8°C° 0 mm 4 mps 754 mmHg 76%
07:00 +11°C° 0 mm 4 mps 754 mmHg 71%
08:00 +12°C° 0 mm 5 mps 754 mmHg 67%
09:00 +13°C° 0 mm 5 mps 754 mmHg 65%
10:00 +13°C° 0 mm 5 mps 754 mmHg 63%
11:00 +14°C° 0 mm 5 mps 754 mmHg 61%
12:00 +13°C° 0.1 mm 5 mps 754 mmHg 65%
13:00 +12°C° 0.1 mm 5 mps 754 mmHg 69%
14:00 +11°C° 0.1 mm 4 mps 755 mmHg 73%
15:00 +11°C° 0 mm 4 mps 755 mmHg 72%
16:00 +11°C° 0 mm 3 mps 755 mmHg 70%
17:00 +11°C° 0 mm 3 mps 755 mmHg 69%
18:00 +10°C° 0 mm 2 mps 755 mmHg 71%
19:00 +9°C° 0 mm 2 mps 754 mmHg 74%
20:00 +9°C° 0 mm 2 mps 754 mmHg 77%
21:00 +8°C° 0.1 mm 2 mps 754 mmHg 79%
22:00 +8°C° 0.1 mm 2 mps 754 mmHg 81%
23:00 +8°C° 0.1 mm 2 mps 754 mmHg 83%
Show more